Flag for Finland Weather past 2 weeks in Ivalo, Finland

Now
39 °F

Clear.


Feels Like: 35 °F
Forecast: 36 / 46 °F
Wind: 6 mph from Southwest

Location: Ivalo

Current Time: Sep 17, 2014 at 6:41:26 AM

Latest Report: Sep 17, 2014 at 5:50 AM


Visibility: 10 mi

Pressure: 30.24 "Hg

Humidity: 93%

Dew point: 37 °F

Location of IvaloLocation

Historic Weather in Ivalo — Graph

°F

Ivalo temperature yesterday

Maximum temperature yesterday: 61 °F (at 2:50 PM)
Minimum temperature yesterday: 32 °F (at 6:50 AM)
Average temperature yesterday: 46 °F

Past Weeks' High & Low Weather Summary

 TemperatureHumidityPressure
High64 °F (Sep 2, 3:50 PM)100% (Sep 2, 6:20 AM)30.39 "Hg (Sep 2, 6:20 AM)
Low30 °F (Sep 13, 4:50 AM)22% (Sep 16, 3:20 PM)29.74 "Hg (Sep 9, 5:50 PM)
Average51 °F71%30.03 "Hg
* Reported Sep 2 5:20 AM — Sep 17 5:20 AM, Ivalo, Weather by CustomWeather, © 2014

Note: Actual official high and low records may vary slightly from our data, if they occured in-between our weather recording intervals... More about our weather records

Advertising

Ivalo weather history for previous 24 hours

 ConditionsComfort  
Time TempWeatherWind HumidityBarometerVisibility
5:20 AM
Sep 17
32 °FClear.7 mph100%30.24 "Hg10 mi
4:50 AM34 °FClear.3 mph100%30.24 "Hg10 mi
4:20 AM34 °FClear.3 mph100%30.24 "Hg10 mi
3:50 AM36 °FClear.6 mph93%30.27 "Hg10 mi
3:20 AM36 °FClear.5 mph93%30.27 "Hg10 mi
2:50 AM37 °FClear.3 mph87%30.27 "Hg10 mi
2:20 AM37 °FClear.2 mph87%30.27 "Hg10 mi
1:50 AM39 °FClear.1 mph87%30.27 "Hg10 mi
1:20 AM39 °FClear.3 mph87%30.27 "Hg10 mi
12:50 AM39 °FClear.2 mph87%30.27 "Hg10 mi
12:20 AM41 °FClear.2 mph81%30.27 "Hg10 mi
11:50 PM
Sep 16
41 °FClear.2 mph87%30.27 "Hg10 mi
11:20 PM43 °FClear.2 mph81%30.30 "Hg10 mi
10:50 PM43 °FClear.No wind87%30.30 "Hg10 mi
10:20 PM43 °FClear.2 mph87%30.30 "Hg10 mi
9:50 PM43 °FClear.1 mph87%30.30 "Hg10 mi
9:20 PM45 °FClear.No wind81%30.30 "Hg10 mi
8:50 PM45 °FClear.No wind87%30.30 "Hg10 mi
8:20 PM46 °FSunny.1 mph82%30.30 "Hg10 mi
7:50 PM50 °FSunny.No wind71%30.30 "Hg10 mi
7:20 PM52 °FSunny.No wind67%30.30 "Hg10 mi
6:50 PM52 °FSunny.1 mph72%30.30 "Hg10 mi
6:20 PM54 °FSunny.1 mph63%30.30 "Hg10 mi
5:50 PM55 °FSunny.2 mph51%30.30 "Hg10 mi
5:20 PM55 °FSunny.1 mph47%30.30 "Hg10 mi
4:50 PM55 °FSunny.2 mph41%30.33 "Hg10 mi
4:20 PM57 °FSunny.3 mph31%30.33 "Hg10 mi
3:50 PM59 °FPassing clouds.5 mph25%30.33 "HgN/A
3:20 PM61 °FPassing clouds.5 mph22%30.33 "HgN/A
2:50 PM61 °FSunny.3 mph23%30.33 "Hg10 mi
2:20 PM59 °FPassing clouds.7 mph25%30.33 "HgN/A
1:50 PM59 °FPassing clouds.6 mph25%30.33 "HgN/A
1:20 PM57 °FPassing clouds.7 mph29%30.36 "HgN/A
12:50 PM57 °FPassing clouds.8 mph29%30.36 "HgN/A
12:20 PM55 °FPassing clouds.6 mph33%30.36 "HgN/A
11:50 AM54 °FPassing clouds.7 mph38%30.36 "HgN/A
11:20 AM52 °FSunny.3 mph44%30.36 "Hg10 mi
10:50 AM48 °FSunny.3 mph50%30.36 "Hg10 mi
10:20 AM45 °FSunny.5 mph57%30.36 "Hg10 mi
9:50 AM43 °FPassing clouds.5 mph61%30.39 "HgN/A
9:20 AM39 °FSunny.5 mph70%30.39 "Hg10 mi
8:50 AM36 °FSunny.6 mph75%30.39 "Hg10 mi
8:20 AM34 °FSunny.7 mph81%30.39 "Hg10 mi
7:50 AM32 °FSunny.6 mph87%30.39 "Hg10 mi
7:20 AM32 °FClear.7 mph87%30.36 "Hg10 mi
6:50 AM32 °FClear.5 mph87%30.36 "Hg10 mi
6:20 AM34 °FClear.6 mph81%30.36 "Hg10 mi
Weather by CustomWeather, © 2014

See weather overviewHow to use our weather pages